Miscellaneous Local Product
Issued by NWS Hastings, NE

Home | Current Version | Previous Version | Text Only | Print | Product List | Glossary Off
Versions: 1 2 3 4 5 6 7 8 9 10 11 12 13 14 15 16 17 18 19 20 21 22 23 24 25 26 27 28 29 30 31 32 33 34 35 36 37 38 39 40 41 42 43 44 45 46 47 48 49 50

000
AXUS43 KGID 191902
MISGRI

GID CWA HOURLY WEATHER ROUNDUP
NATIONAL WEATHER SERVICE HASTINGS NE
100 PM CST THU JAN 19 2017

NOTE: "FAIR" INDICATES FEW OR NO CLOUDS BELOW 12,000 FEET WITH NO
SIGNIFICANT WEATHER AND/OR OBSTRUCTIONS TO VISIBILITY.

...SOUTH CENTRAL NEBRASKA...

CITY           SKY/WX    TMP DP  RH WIND       PRES   REMARKS
GRAND ISLAND   CLOUDY    41  41 100 S7        29.63F FOG
HASTINGS       FOG       41  41 100 SE8       29.64F VSB 1
KEARNEY        CLOUDY    41  39  93 S8        29.61F
ORD            CLOUDY    40  39  97 SE5       29.60F FOG
YORK           MOSUNNY   41  41 100 S9        29.66F FOG
AURORA         CLOUDY    41  41 100 SE10      29.63F FOG
LEXINGTON      CLOUDY    42  41  95 S5        29.60F FOG
HOLDREGE       CLOUDY    42  41  97 S6        29.60F FOG
HEBRON         CLOUDY    43  43  99 SE6       29.66F FOG

...NEBRASKA PANHANDLE...

CITY           SKY/WX    TMP DP  RH WIND       PRES   REMARKS
CHADRON        SUNNY     39  24  55 SW8       29.52F WCI  33
ALLIANCE       SUNNY     50  23  34 SW7       29.52F
SCOTTSBLUFF    SUNNY     46  25  43 VRB3      29.54F
SIDNEY         SUNNY     50  24  36 CALM      29.55F

...WESTERN AND NORTH CENTRAL NEBRASKA...

CITY           SKY/WX    TMP DP  RH WIND       PRES   REMARKS
VALENTINE      SUNNY     52  20  28 SW13      29.51F
AINSWORTH      CLOUDY    37  37 100 S15       29.55F WCI  28
ONEILL         CLOUDY    43  42  97 S13       29.59F
BROKEN BOW     CLOUDY    41  40  96 S9        29.59F FOG
IMPERIAL       SUNNY     38  32  79 S8        29.58F WCI  32
NORTH PLATTE   FOG       34  34 100 NW5       29.59F VSB 1/2 WCI  30
MCCOOK         FOG       36  36 100 W8        29.60F VSB 1   WCI  30

...EASTERN NEBRASKA...

CITY           SKY/WX    TMP DP  RH WIND       PRES   REMARKS
NORFOLK        FOG       39  38  96 SE12      29.63F VSB 3/4 WCI  32
SO SIOUX CITY  FOG       40  38  93 SE9       29.70F VSB 1   WCI  34
TEKAMAH        FOG       38  36  92 CALM      29.71F VSB 1/4
COLUMBUS       CLOUDY    39  37  93 SE8       29.67F WCI  34
ALBION         FOG       38  38 100 SE7       29.63F VSB 1/4 WCI  33
OMAHA EPPLEY   PTSUNNY   43  39  86 S8        29.71F FOG
OFFUTT AFB     CLOUDY    43  43 100 SE5       29.70F
MILLARD        CLOUDY    43  42  95 SE8       29.70F FOG
LINCOLN        CLOUDY    44  41  89 S14       29.70F
NEBRASKA CITY  CLOUDY    43  43 100 SE6       29.70F FOG
BEATRICE       CLOUDY    43  41  95 S7        29.69F
FALLS CITY     CLOUDY    45  44  97 SE6       29.70F FOG

...NORTHERN KANSAS...

CITY           SKY/WX    TMP DP  RH WIND       PRES   REMARKS
GOODLAND       CLOUDY    35  34  96 S6        29.58F FOG     WCI  30
HILL CITY      CLOUDY    45  42  89 S9        29.60F
NORTON         CLOUDY    43  39  87 SE6       29.59F
PHILLIPSBURG   CLOUDY    45  45 100 SE6       29.62F
SMITH CENTER   CLOUDY    43  43 100 SE8       29.63F FOG
HAYS           CLOUDY    46  42  86 SE10      29.60F
RUSSELL        CLOUDY    46  43  89 SE10      29.60F
CONCORDIA        N/A     44  44 100 SE9       29.65F FOG
SALINA         CLOUDY    48  43  82 SE9       29.66F HAZE
TOPEKA         CLOUDY    48  44  86 SE8       29.70F



USA.gov is the U.S. government's official web portal to all federal, state and local government web resources and services.